Location: Unspecified
(48.5670°N, 0.0000°E)
Time: 10:57:03
(UTC+00:00)

Tiros 1 - Pass Details

Date: 31 October 2020
Orbit: 630 x 664 km, 48.4° (Epoch: 03 December)

Event Time Altitude Azimuth Distance (km) Brightness Sun altitude
Exits shadow 03:49:12 43° 95° (E) 890 8.2 -29.4°
Drops below altitude 10° 03:52:24 10° 81° (E) 2,009 10.6 -28.9°
Sets 03:54:43 0° 79° (E) 2,918 11.8 -28.5°
